WB4YDL Weather Reports


time (UTC)temp
F
wind
direction
speed
knots
gust
knots
rain 1hr
in
rain 24hr
in
rain mn
in
humidity
%
barometer
mb
20260504150953 73 201 3.5 7.0 0.00 0.00 0.00 62 1007.2
20260504150450 73 172 5.2 7.0 0.00 0.00 0.00 61 1007.2
20260504140916 69 221 1.7 1.7 0.00 0.00 0.00 69 1007.4
20260504140412 68 202 1.7 2.6 0.00 0.00 0.00 71 1007.3
20260504130337 63 193 5.2 7.0 0.00 0.00 0.00 76 1007.3
20260504120301 62 190 5.2 6.1 0.00 0.00 0.00 74 1007.4
20260504110224 61 206 1.7 1.7 0.00 0.00 0.00 73 1006.7
20260504100148 62 234 1.7 1.7 0.00 0.00 0.00 69 1006.5
20260504090111 62 194 4.3 6.1 0.00 0.00 0.00 66 1006.7
20260504081541 62 215 5.2 6.1 0.00 0.00 0.00 65 1006.9
20260504081037 61 194 1.7 3.5 0.00 0.00 0.00 65 1006.8
20260504080534 62 189 3.5 5.2 0.00 0.00 0.00 64 1007.0
20260504050346 62 228 4.3 7.8 0.00 0.00 0.00 58 1008.5
20260504045843 63 207 2.6 5.2 0.00 0.00 0.00 57 1008.5
20260504045338 63 264 6.1 7.8 0.00 0.00 0.00 57 1008.3
20260504044835 63 214 5.2 6.1 0.00 0.00 0.00 57 1008.4
20260504044333 63 194 3.5 5.2 0.00 0.00 0.00 56 1008.5
20260504043830 63 211 3.5 3.5 0.00 0.00 0.00 57 1008.7
20260504043327 63 221 5.2 8.7 0.00 0.00 0.00 56 1008.5
20260504042824 62 227 4.3 7.0 0.00 0.00 0.00 57 1008.6
20260504042320 63 205 5.2 6.1 0.00 0.00 0.00 56 1008.6
20260504041817 63 182 5.2 7.8 0.00 0.00 0.00 56 1008.5
20260504041313 63 240 6.1 7.8 0.00 0.00 0.00 55 1008.7
20260504040809 63 169 3.5 5.2 0.00 0.00 0.00 56 1008.7
20260504040307 63 233 3.5 5.2 0.00 0.00 0.00 55 1008.7
20260504035803 63 210 2.6 2.6 0.00 0.00 0.00 55 1008.7
20260504035300 63 197 3.5 5.2 0.00 0.00 0.00 54 1008.7
20260504034757 63 181 6.1 7.8 0.00 0.00 0.00 54 1008.8
20260504034255 63 170 1.7 2.6 0.00 0.00 0.00 54 1008.9
20260504033752 63 218 3.5 5.2 0.00 0.00 0.00 54 1008.8
20260504033249 63 241 5.2 7.0 0.00 0.00 0.00 53 1008.9
20260504032746 63 215 7.8 9.6 0.00 0.00 0.00 54 1009.0
20260504032243 63 171 1.7 2.6 0.00 0.00 0.00 54 1008.9
20260504031740 63 232 5.2 7.8 0.00 0.00 0.00 54 1009.0
20260504031238 63 204 3.5 5.2 0.00 0.00 0.00 54 1009.0
20260504030733 63 200 4.3 6.1 0.00 0.00 0.00 54 1009.2
20260504030231 63 203 4.3 5.2 0.00 0.00 0.00 53 1009.2
20260504025727 63 186 4.3 5.2 0.00 0.00 0.00 53 1009.2
20260504025224 63 198 1.7 2.6 0.00 0.00 0.00 54 1009.1
20260504024721 63 176 3.5 3.5 0.00 0.00 0.00 54 1009.0
20260504024217 63 205 7.0 7.8 0.00 0.00 0.00 53 1009.0
20260504023714 63 197 3.5 5.2 0.00 0.00 0.00 53 1008.8
20260504023210 63 206 1.7 2.6 0.00 0.00 0.00 53 1009.1
20260504022706 63 201 3.5 3.5 0.00 0.00 0.00 54 1009.3
20260504022203 63 217 2.6 2.6 0.00 0.00 0.00 53 1009.0
20260504021701 63 172 5.2 6.1 0.00 0.00 0.00 52 1009.2
20260504021157 63 197 3.5 5.2 0.00 0.00 0.00 53 1008.9
20260504020654 63 203 1.7 1.7 0.00 0.00 0.00 52 1008.8
20260504020150 63 215 4.3 6.1 0.00 0.00 0.00 51 1009.0
20260504015647 64 203 1.7 1.7 0.00 0.00 0.00 52 1009.0
20260504015143 64 209 1.7 2.6 0.00 0.00 0.00 51 1008.8
20260504014639 64 175 2.6 3.5 0.00 0.00 0.00 50 1008.8
20260504014136 64 226 1.7 1.7 0.00 0.00 0.00 50 1008.8
20260504013634 65 193 1.7 2.6 0.00 0.00 0.00 50 1008.8
20260504013131 65 189 2.6 2.6 0.00 0.00 0.00 49 1009.0
20260504012628 65 214 2.6 3.5 0.00 0.00 0.00 49 1008.8
20260504012126 66 194 5.2 7.0 0.00 0.00 0.00 48 1008.6
20260504011622 66 208 1.7 1.7 0.00 0.00 0.00 48 1008.8
20260504011119 66 200 4.3 5.2 0.00 0.00 0.00 47 1008.8
20260504010614 66 212 3.5 5.2 0.00 0.00 0.00 47 1008.7
20260504010111 66 208 3.5 5.2 0.00 0.00 0.00 47 1008.7
20260504005608 67 253 3.5 5.2 0.00 0.00 0.00 48 1008.7
20260504005105 67 210 4.3 5.2 0.00 0.00 0.00 47 1008.7
20260504004603 67 174 5.2 6.1 0.00 0.00 0.00 47 1008.5
20260504004100 67 202 3.5 3.5 0.00 0.00 0.00 46 1008.5
20260504003556 68 198 3.5 3.5 0.00 0.00 0.00 45 1008.6
20260504003053 68 198 3.5 3.5 0.00 0.00 0.00 45 1008.7
20260504002549 68 187 2.6 3.5 0.00 0.00 0.00 44 1008.8
20260504002047 69 221 1.7 2.6 0.00 0.00 0.00 44 1008.8
20260504001544 69 220 1.7 1.7 0.00 0.00 0.00 43 1008.7
20260504001040 69 216 2.6 2.6 0.00 0.00 0.00 43 1008.8
20260504000538 69 266 2.6 3.5 0.00 0.00 0.00 43 1008.9
20260504000035 69 189 7.8 7.8 0.00 0.00 0.00 42 1009.0
20260503235533 70 202 6.1 7.8 0.00 0.00 0.00 42 1008.9
20260503235029 70 231 3.5 5.2 0.00 0.00 0.00 42 1009.1
20260503234527 70 314 3.5 3.5 0.00 0.00 0.00 43 1008.9
20260503234025 70 196 0.9 2.6 0.00 0.00 0.00 43 1009.1
20260503233521 70 236 4.3 6.1 0.00 0.00 0.00 42 1009.3
20260503233017 71 172 2.6 2.6 0.00 0.00 0.00 41 1009.4
20260503232515 71 209 2.6 2.6 0.00 0.00 0.00 41 1009.2
20260503232012 71 207 5.2 7.0 0.00 0.00 0.00 41 1009.0
20260503231510 71 204 7.8 12.2 0.00 0.00 0.00 41 1009.3
20260503231006 71 229 7.0 7.8 0.00 0.00 0.00 40 1009.3
20260503230503 71 219 5.2 7.8 0.00 0.00 0.00 40 1009.3
20260503230000 71 198 7.0 7.8 0.00 0.00 0.00 41 1009.4
20260503225457 71 215 4.3 6.1 0.00 0.00 0.00 41 1009.8
20260503224952 72 223 3.5 5.2 0.00 0.00 0.00 40 1009.6
20260503224450 72 229 0.9 1.7 0.00 0.00 0.00 41 1009.7
20260503223948 71 203 1.7 1.7 0.00 0.00 0.00 40 1009.8
20260503223445 71 186 5.2 6.1 0.00 0.00 0.00 40 1009.7
20260503222941 71 206 7.8 12.2 0.00 0.00 0.00 39 1009.9
20260503222439 72 234 4.3 7.0 0.00 0.00 0.00 39 1009.8
20260503221937 71 213 9.6 12.2 0.00 0.00 0.00 38 1009.9
20260503221435 72 200 3.5 5.2 0.00 0.00 0.00 39 1009.9
20260503220932 71 236 5.2 7.0 0.00 0.00 0.00 39 1010.1
20260503220428 72 193 3.5 5.2 0.00 0.00 0.00 40 1010.2
20260503215925 72 184 4.3 6.1 0.00 0.00 0.00 40 1010.0
20260503215422 72 228 5.2 7.8 0.00 0.00 0.00 38 1010.1
20260503214920 73 216 5.2 7.0 0.00 0.00 0.00 37 1010.2
20260503214417 72 252 2.6 5.2 0.00 0.00 0.00 38 1010.4
20260503213914 71 207 3.5 6.1 0.00 0.00 0.00 37 1010.7
20260503213412 72 187 8.7 13.0 0.00 0.00 0.00 39 1010.4
20260503212908 72 212 2.6 3.5 0.00 0.00 0.00 37 1010.7
20260503212406 72 278 2.6 2.6 0.00 0.00 0.00 37 1010.5
20260503211904 71 207 5.2 7.0 0.00 0.00 0.00 38 1010.6
20260503211400 71 214 6.1 7.8 0.00 0.00 0.00 40 1010.7
20260503210855 71 221 7.8 9.6 0.00 0.00 0.00 39 1010.9
20260503210353 71 220 1.7 2.6 0.00 0.00 0.00 38 1011.1
20260503205847 71 191 3.5 3.5 0.00 0.00 0.00 39 1011.0
20260503205345 71 221 5.2 6.1 0.00 0.00 0.00 38 1011.3
20260503204841 71 184 4.3 7.8 0.00 0.00 0.00 39 1011.4
20260503204338 72 218 6.1 8.7 0.00 0.00 0.00 40 1011.3
20260503203835 71 282 5.2 8.7 0.00 0.00 0.00 37 1011.7
20260503203333 71 205 2.6 5.2 0.00 0.00 0.00 40 1011.7
20260503202830 71 139 5.2 7.0 0.00 0.00 0.00 40 1011.8
20260503202328 70 253 2.6 3.5 0.00 0.00 0.00 41 1012.0
20260503201826 70 196 6.1 7.0 0.00 0.00 0.00 40 1012.1
20260503201322 71 187 7.8 9.6 0.00 0.00 0.00 39 1012.1
20260503200820 70 182 4.3 6.1 0.00 0.00 0.00 41 1012.3
20260503200316 70 208 5.2 9.6 0.00 0.00 0.00 40 1012.5
20260503195813 70 271 7.0 11.3 0.00 0.00 0.00 41 1012.5
20260503195310 70 259 2.6 3.5 0.00 0.00 0.00 40 1012.5
20260503194807 69 227 7.0 7.8 0.00 0.00 0.00 41 1012.8
20260503194303 70 155 2.6 3.5 0.00 0.00 0.00 42 1012.9
20260503193759 69 292 2.6 3.5 0.00 0.00 0.00 41 1013.2
20260503193255 70 240 2.6 3.5 0.00 0.00 0.00 39 1013.2
20260503192751 70 264 3.5 5.2 0.00 0.00 0.00 41 1013.2
20260503192246 69 207 1.7 2.6 0.00 0.00 0.00 43 1013.7
20260503191743 68 282 2.6 3.5 0.00 0.00 0.00 44 1013.7
20260503191240 68 264 6.1 12.2 0.00 0.00 0.00 41 1013.6
20260503190737 69 235 7.0 9.6 0.00 0.00 0.00 40 1013.7
20260503190234 68 260 5.2 7.0 0.00 0.00 0.00 42 1013.7
20260503185731 69 195 7.8 9.6 0.00 0.00 0.00 40 1013.4
20260503185227 69 247 6.1 7.8 0.00 0.00 0.00 42 1013.8
20260503184721 68 222 7.8 9.6 0.00 0.00 0.00 44 1013.9
20260503184218 68 188 7.0 8.7 0.00 0.00 0.00 43 1014.0
20260503183714 68 191 6.1 7.8 0.00 0.00 0.00 44 1014.2
20260503183212 68 207 3.5 5.2 0.00 0.00 0.00 42 1014.4
20260503182710 67 257 3.5 6.1 0.00 0.00 0.00 44 1014.4
20260503182208 66 211 5.2 7.8 0.00 0.00 0.00 43 1014.2
20260503181704 67 191 2.6 5.2 0.00 0.00 0.00 44 1014.7
20260503181201 67 274 3.5 3.5 0.00 0.00 0.00 46 1014.6
20260503180658 66 206 2.6 3.5 0.00 0.00 0.00 47 1014.5
20260503180157 66 151 7.8 9.6 0.00 0.00 0.00 49 1014.5
20260503175653 66 168 7.8 8.7 0.00 0.00 0.00 49 1014.6
20260503175150 67 277 3.5 5.2 0.00 0.00 0.00 46 1015.1
20260503174646 67 269 3.5 7.8 0.00 0.00 0.00 47 1014.9
20260503174144 66 271 3.5 6.1 0.00 0.00 0.00 48 1015.2
20260503173639 65 234 7.8 9.6 0.00 0.00 0.00 47 1015.1
20260503173136 66 184 5.2 7.8 0.00 0.00 0.00 47 1015.4
20260503172633 65 183 4.3 7.8 0.00 0.00 0.00 48 1015.1
20260503172130 66 187 5.2 7.8 0.00 0.00 0.00 47 1015.3
20260503171626 66 238 3.5 5.2 0.00 0.00 0.00 48 1015.4
20260503171124 65 220 5.2 7.0 0.00 0.00 0.00 46 1015.3
20260503170621 65 187 3.5 3.5 0.00 0.00 0.00 49 1015.5
20260503170117 65 199 7.8 9.6 0.00 0.00 0.00 47 1015.4